Location: Avully
(45.9633°N, 6.0228°E)
Time: 13:27:20
(UTC+00:00)

Cosmos 1570 Rocket - Pass Details

Date: 23 May 2024
Orbit: 761 x 786 km, 74.1° (Epoch: 16 June)

Event Time Altitude Azimuth Distance (km) Brightness Sun altitude
Rises 02:52:58 0° 336° (NNW) 3,265 7.5 -9.4°
Reaches altitude 10° 02:55:22 10° 335° (NNW) 2,337 6.7 -9.1°
Maximum altitude 03:00:39 72° 252° (WSW) 825 4.0 -8.4°
Drops below altitude 10° 03:05:56 10° 169° (S) 2,335 6.2 -7.8°
Sets 03:08:19 0° 167° (SSE) 3,261 7.0 -7.4°
